• In Uzbekistan
  • List of Countries
  • For 7 days
  • Water Temperature
  • Satellite Maps
  • Weather Map
  • Weather Widgets
  • user-avatar
    Login

    Hourly Weather Mosbach

    Today, 21 November, Tuesday

    Time Temperature Precipitation Wind Pressure Humidity
    00:00 +4°C° 0.1 mm 6 mps 747 mmHg 85%
    01:00 +4°C° 0.1 mm 6 mps 746 mmHg 86%
    02:00 +4°C° 0.2 mm 6 mps 746 mmHg 87%
    03:00 +4°C° 0.2 mm 6 mps 746 mmHg 88%
    04:00 +4°C° 0.2 mm 6 mps 746 mmHg 89%
    05:00 +5°C° 0.1 mm 6 mps 746 mmHg 89%
    06:00 +5°C° 0.1 mm 6 mps 746 mmHg 89%
    07:00 +6°C° 0.1 mm 5 mps 746 mmHg 89%
    08:00 +6°C° 0.8 mm 5 mps 746 mmHg 89%
    09:00 +6°C° 0.8 mm 5 mps 747 mmHg 89%
    10:00 +6°C° 0.8 mm 5 mps 747 mmHg 89%
    11:00 +7°C° 1 mm 5 mps 747 mmHg 88%
    12:00 +7°C° 1 mm 5 mps 747 mmHg 87%
    13:00 +7°C° 1 mm 5 mps 747 mmHg 86%
    14:00 +7°C° 0 mm 5 mps 746 mmHg 86%
    15:00 +7°C° 0 mm 5 mps 746 mmHg 86%
    16:00 +7°C° 0 mm 4 mps 746 mmHg 86%
    17:00 +7°C° 0 mm 4 mps 746 mmHg 87%
    18:00 +7°C° 0 mm 3 mps 746 mmHg 88%
    19:00 +7°C° 0 mm 3 mps 746 mmHg 89%
    20:00 +7°C° 0 mm 3 mps 746 mmHg 89%
    21:00 +5°C° 0 mm 3 mps 746 mmHg 88%
    22:00 +5°C° 0 mm 3 mps 746 mmHg 88%
    23:00 +5°C° 0 mm 3 mps 746 mmHg 87%

    Tomorrow, 22 November, Wednesday

    Time Temperature Precipitation Wind Pressure Humidity
    00:00 +5°C° 0 mm 3 mps 746 mmHg 86%
    01:00 +5°C° 0 mm 3 mps 746 mmHg 85%
    02:00 +5°C° 0 mm 3 mps 745 mmHg 84%
    03:00 +5°C° 0 mm 3 mps 745 mmHg 84%
    04:00 +5°C° 0 mm 3 mps 745 mmHg 84%
    05:00 +4°C° 0 mm 3 mps 745 mmHg 84%
    06:00 +4°C° 0 mm 3 mps 745 mmHg 84%
    07:00 +4°C° 0 mm 3 mps 745 mmHg 84%
    08:00 +5°C° 0 mm 3 mps 745 mmHg 80%
    09:00 +7°C° 0 mm 3 mps 745 mmHg 77%
    10:00 +8°C° 0 mm 3 mps 745 mmHg 74%
    11:00 +9°C° 0 mm 3 mps 745 mmHg 70%
    12:00 +10°C° 0 mm 3 mps 744 mmHg 66%
    13:00 +11°C° 0 mm 3 mps 744 mmHg 62%
    14:00 +11°C° 0 mm 3 mps 744 mmHg 65%
    15:00 +10°C° 0 mm 2 mps 744 mmHg 69%
    16:00 +9°C° 0 mm 2 mps 743 mmHg 72%
    17:00 +9°C° 0 mm 2 mps 743 mmHg 73%
    18:00 +8°C° 0 mm 2 mps 743 mmHg 74%
    19:00 +7°C° 0 mm 2 mps 743 mmHg 75%
    20:00 +7°C° 0 mm 2 mps 743 mmHg 73%
    21:00 +7°C° 0 mm 2 mps 743 mmHg 72%
    22:00 +7°C° 0 mm 2 mps 743 mmHg 71%
    23:00 +7°C° 0 mm 2 mps 743 mmHg 70%

    Day after tomorrow, 23 November, Thursday

    Time Temperature Precipitation Wind Pressure Humidity
    00:00 +7°C° 0 mm 2 mps 743 mmHg 70%
    01:00 +7°C° 0 mm 3 mps 743 mmHg 70%
    02:00 +7°C° 0 mm 3 mps 743 mmHg 70%
    03:00 +7°C° 0 mm 3 mps 743 mmHg 70%
    04:00 +7°C° 0 mm 3 mps 743 mmHg 70%
    05:00 +7°C° 0 mm 3 mps 743 mmHg 71%
    06:00 +7°C° 0 mm 3 mps 743 mmHg 71%
    07:00 +8°C° 0 mm 3 mps 743 mmHg 72%
    08:00 +8°C° 0 mm 4 mps 744 mmHg 69%
    09:00 +10°C° 0 mm 4 mps 744 mmHg 67%
    10:00 +11°C° 0 mm 4 mps 745 mmHg 65%
    11:00 +12°C° 0 mm 4 mps 745 mmHg 64%
    12:00 +13°C° 0 mm 4 mps 745 mmHg 62%
    13:00 +15°C° 0 mm 4 mps 745 mmHg 61%
    14:00 +14°C° 0 mm 4 mps 745 mmHg 64%
    15:00 +13°C° 0 mm 3 mps 745 mmHg 68%
    16:00 +13°C° 0 mm 3 mps 745 mmHg 72%
    17:00 +12°C° 0 mm 3 mps 746 mmHg 75%
    18:00 +11°C° 0 mm 3 mps 746 mmHg 78%
    19:00 +11°C° 0 mm 3 mps 747 mmHg 80%
    20:00 +10°C° 0 mm 3 mps 747 mmHg 81%
    21:00 +10°C° 0 mm 3 mps 747 mmHg 82%
    22:00 +10°C° 0 mm 3 mps 748 mmHg 83%
    23:00 +10°C° 0 mm 3 mps 748 mmHg 84%

    24 November, Friday

    Time Temperature Precipitation Wind Pressure Humidity
    00:00 +9°C° 0 mm 3 mps 748 mmHg 84%
    01:00 +9°C° 0 mm 3 mps 748 mmHg 84%
    02:00 +9°C° 0 mm 3 mps 748 mmHg 84%
    03:00 +9°C° 0 mm 2 mps 748 mmHg 84%
    04:00 +9°C° 0 mm 2 mps 748 mmHg 83%
    05:00 +9°C° 0 mm 2 mps 748 mmHg 82%
    06:00 +9°C° 0 mm 2 mps 748 mmHg 80%
    07:00 +9°C° 0 mm 2 mps 748 mmHg 79%
    08:00 +10°C° 0 mm 3 mps 748 mmHg 74%
    09:00 +10°C° 0 mm 3 mps 748 mmHg 69%
    10:00 +11°C° 0 mm 3 mps 748 mmHg 65%
    11:00 +12°C° 0 mm 3 mps 748 mmHg 62%
    12:00 +14°C° 0 mm 3 mps 747 mmHg 58%
    13:00 +16°C° 0 mm 3 mps 747 mmHg 55%
    14:00 +14°C° 0 mm 3 mps 747 mmHg 59%
    15:00 +13°C° 0 mm 3 mps 747 mmHg 63%
    16:00 +13°C° 0 mm 2 mps 746 mmHg 67%
    17:00 +13°C° 0 mm 2 mps 746 mmHg 68%
    18:00 +11°C° 0 mm 3 mps 747 mmHg 69%
    19:00 +11°C° 0 mm 3 mps 747 mmHg 70%
    20:00 +10°C° 0 mm 3 mps 747 mmHg 70%
    21:00 +10°C° 0 mm 3 mps 747 mmHg 69%
    22:00 +10°C° 0 mm 3 mps 747 mmHg 69%
    23:00 +10°C° 0 mm 2 mps 746 mmHg 69%

    25 November, Saturday

    Time Temperature Precipitation Wind Pressure Humidity
    00:00 +10°C° 0 mm 2 mps 746 mmHg 68%
    01:00 +10°C° 0 mm 2 mps 746 mmHg 68%
    02:00 +10°C° 0 mm 2 mps 746 mmHg 68%
    03:00 +9°C° 0 mm 2 mps 746 mmHg 69%
    04:00 +9°C° 0 mm 2 mps 746 mmHg 69%
    05:00 +10°C° 0 mm 2 mps 745 mmHg 68%
    06:00 +10°C° 0 mm 3 mps 745 mmHg 66%
    07:00 +10°C° 0 mm 3 mps 745 mmHg 65%
    08:00 +10°C° 0 mm 3 mps 745 mmHg 63%
    09:00 +11°C° 0 mm 3 mps 744 mmHg 61%
    10:00 +12°C° 0 mm 3 mps 744 mmHg 59%
    11:00 +13°C° 0 mm 4 mps 744 mmHg 57%
    12:00 +14°C° 0 mm 4 mps 743 mmHg 55%
    13:00 +15°C° 0 mm 5 mps 743 mmHg 52%
    14:00 +14°C° 0.2 mm 5 mps 743 mmHg 60%
    15:00 +14°C° 0.2 mm 6 mps 743 mmHg 67%
    16:00 +13°C° 0.2 mm 6 mps 744 mmHg 75%
    17:00 +11°C° 0.5 mm 6 mps 744 mmHg 77%
    18:00 +11°C° 0.5 mm 7 mps 745 mmHg 78%
    19:00 +10°C° 0.5 mm 7 mps 746 mmHg 80%
    20:00 +9°C° 0.2 mm 6 mps 747 mmHg 77%
    21:00 +8°C° 0.2 mm 6 mps 748 mmHg 74%
    22:00 +5°C° 0.2 mm 6 mps 749 mmHg 71%
    23:00 +5°C° 0 mm 5 mps 750 mmHg 71%

    26 November, Sunday

    Time Temperature Precipitation Wind Pressure Humidity
    00:00 +5°C° 0 mm 5 mps 751 mmHg 72%
    01:00 +3°C° 0 mm 5 mps 752 mmHg 73%
    02:00 +4°C° 0 mm 4 mps 752 mmHg 75%
    03:00 +3°C° 0 mm 4 mps 752 mmHg 78%
    04:00 +3°C° 0 mm 4 mps 753 mmHg 80%
    05:00 +3°C° 0 mm 4 mps 753 mmHg 82%
    06:00 +1°C° 0 mm 4 mps 753 mmHg 83%
    07:00 +2°C° 0 mm 3 mps 754 mmHg 85%
    08:00 +1°C° 0 mm 4 mps 754 mmHg 82%
    09:00 +3°C° 0 mm 4 mps 755 mmHg 79%
    10:00 +3°C° 0 mm 4 mps 755 mmHg 76%
    11:00 +4°C° 0 mm 4 mps 755 mmHg 71%
    12:00 +4°C° 0 mm 4 mps 755 mmHg 67%
    13:00 +5°C° 0 mm 4 mps 755 mmHg 62%
    14:00 +5°C° 0 mm 4 mps 755 mmHg 65%
    15:00 +4°C° 0 mm 3 mps 755 mmHg 67%
    16:00 +4°C° 0 mm 3 mps 755 mmHg 69%
    17:00 +3°C° 0 mm 3 mps 756 mmHg 72%
    18:00 +3°C° 0 mm 2 mps 756 mmHg 76%
    19:00 +3°C° 0 mm 2 mps 756 mmHg 79%
    20:00 +2°C° 0 mm 2 mps 756 mmHg 81%
    21:00 +2°C° 0 mm 2 mps 757 mmHg 83%
    22:00 +2°C° 0 mm 2 mps 757 mmHg 85%
    23:00 +2°C° 0 mm 2 mps 757 mmHg 87%
    Show more